EW7556 Weather Reports


time (UTC)temp
C
wind
direction
speed
KPH
gust
KPH
rain 1hr
cm
rain 24hr
cm
rain mn
cm
humidity
%
barometer
mb
20260507200034 15 238 1.6 12.9 0.00 0.00 0.00 73 1020.4
20260507194523 15 207 0.0 9.7 0.00 0.00 0.00 72 1020.5
20260507193134 14 240 1.6 8.0 0.00 0.00 0.00 75 1020.6
20260507191542 13 221 0.0 11.3 0.00 0.00 0.00 76 1020.7
20260507190032 13 235 3.2 9.7 0.00 0.00 0.00 78 1020.8
20260507184527 13 228 3.2 11.3 0.00 0.00 0.00 75 1020.9
20260507183041 13 199 4.8 11.3 0.00 0.00 0.00 72 1020.9
20260507181551 13 200 1.6 11.3 0.00 0.00 0.00 75 1020.9
20260507180056 12 236 3.2 12.9 0.00 0.00 0.00 77 1020.8
20260507174541 12 193 4.8 11.3 0.00 0.00 0.00 74 1020.8
20260507173103 12 233 4.8 11.3 0.00 0.00 0.00 76 1021.0
20260507171550 12 259 4.8 14.5 0.00 0.00 0.00 75 1021.0
20260507170054 12 181 6.4 14.5 0.00 0.00 0.00 77 1020.9
20260507164541 11 183 6.4 14.5 0.00 0.00 0.00 76 1021.0
20260507163044 11 199 6.4 16.1 0.00 0.00 0.00 76 1021.1
20260507161617 11 238 3.2 12.9 0.00 0.00 0.00 77 1021.1
20260507160120 10 214 1.6 11.3 0.00 0.00 0.00 79 1021.2
20260507154552 10 187 1.6 6.4 0.00 0.00 0.00 79 1021.3
20260507153056 10 204 4.8 8.0 0.00 0.00 0.00 82 1021.4
20260507151600 10 172 4.8 8.0 0.00 0.00 0.00 84 1021.4
20260507144601 9 212 0.0 3.2 0.00 0.00 0.00 88 1021.4
20260507143108 8 212 0.0 3.2 0.00 0.00 0.00 90 1021.3
20260507141625 8 192 0.0 0.0 0.00 0.00 0.00 91 1021.3
20260507140112 8 192 0.0 0.0 0.00 0.00 0.00 92 1021.2
20260507134601 8 192 0.0 0.0 0.00 0.00 0.00 92 1021.1
20260507133055 7 192 0.0 0.0 0.00 0.00 0.00 92 1021.0
20260507131601 7 192 0.0 1.6 0.00 0.00 0.00 92 1021.1
20260507130112 7 192 0.0 3.2 0.00 0.00 0.00 92 1021.1
20260507124600 6 188 0.0 1.6 0.00 0.00 0.00 92 1021.0
20260507123101 6 188 0.0 1.6 0.00 0.00 0.00 92 1021.2
20260507121508 6 186 0.0 4.8 0.00 0.00 0.00 92 1021.2
20260507120116 6 198 1.6 3.2 0.00 0.00 0.00 91 1021.2
20260507114605 6 224 0.0 0.0 0.00 0.00 0.00 90 1021.4
20260507113004 6 224 0.0 0.0 0.00 0.00 0.00 89 1021.4
20260507111509 7 224 0.0 0.0 0.00 0.00 0.00 89 1021.2
20260507110121 7 224 0.0 4.8 0.00 0.00 0.00 89 1021.3
20260507104505 7 204 0.0 4.8 0.00 0.00 0.00 90 1021.3
20260507103007 7 193 0.0 3.2 0.00 0.00 0.00 90 1021.5
20260507101516 8 200 0.0 3.2 0.00 0.00 0.00 89 1021.4
20260507100119 8 200 0.0 1.6 0.00 0.00 0.00 88 1021.4
20260507094604 8 181 0.0 3.2 0.00 0.00 0.00 88 1021.5
20260507093004 9 224 3.2 6.4 0.00 0.00 0.00 88 1021.5
20260507091508 9 186 0.0 4.8 0.00 0.00 0.00 88 1021.6
20260507090114 9 193 3.2 8.0 0.00 0.00 0.00 88 1021.7
20260507084601 9 190 1.6 4.8 0.00 0.00 0.00 88 1021.6
20260507083102 10 183 1.6 9.7 0.00 0.00 0.00 87 1021.5
20260507081501 10 203 4.8 9.7 0.00 0.00 0.00 86 1021.5
20260507080119 10 195 0.0 1.6 0.00 0.00 0.00 87 1021.5
20260507074604 10 227 0.0 8.0 0.00 0.00 0.00 88 1021.2
20260507073003 10 186 1.6 6.4 0.00 0.00 0.00 89 1020.9
20260507071506 10 223 4.8 9.7 0.00 0.00 0.00 88 1021.0
20260507070114 10 203 1.6 6.4 0.00 0.00 0.00 87 1021.1
20260507064618 10 216 0.0 4.8 0.00 0.00 0.00 87 1021.1
20260507063101 10 191 0.0 3.2 0.00 0.00 0.00 88 1021.1
20260507061503 10 188 1.6 9.7 0.00 0.00 0.00 89 1020.9
20260507060108 10 233 1.6 8.0 0.00 0.00 0.00 90 1021.0
20260507054602 10 230 0.0 3.2 0.00 0.00 0.00 90 1021.1
20260507053055 10 230 0.0 3.2 0.00 0.00 0.00 90 1021.1
20260507051558 10 197 1.6 6.4 0.00 0.00 0.00 89 1021.2
20260507044548 10 205 1.6 12.9 0.00 0.00 0.00 88 1021.3
20260507043059 11 207 4.8 16.1 0.00 0.00 0.00 88 1021.2
20260507041605 11 174 4.8 20.9 0.00 0.00 0.00 88 1021.1
20260507040100 11 200 4.8 12.9 0.00 0.00 0.00 88 1021.0
20260507034548 11 215 6.4 16.1 0.00 0.00 0.00 87 1021.0
20260507033050 11 227 8.0 16.1 0.00 0.00 0.00 86 1020.9
20260507031552 11 157 4.8 14.5 0.00 0.00 0.00 86 1020.7
20260507024540 12 216 3.2 9.7 0.00 0.00 0.00 86 1020.7
20260507023043 12 181 3.2 14.5 0.00 0.00 0.00 86 1020.6
20260507021552 12 223 3.2 9.7 0.00 0.00 0.00 87 1020.6
20260507020050 11 188 3.2 9.7 0.00 0.00 0.00 87 1020.7
20260507014555 12 214 3.2 11.3 0.00 0.00 0.00 86 1020.7
20260507013108 12 200 3.2 11.3 0.00 0.00 0.00 86 1020.6
20260507011550 12 236 3.2 16.1 0.00 0.00 0.00 86 1020.5
20260507010054 12 225 6.4 14.5 0.00 0.00 0.00 85 1020.5
20260507004539 12 235 4.8 11.3 0.00 0.00 0.00 85 1020.6
20260507003039 12 193 3.2 8.0 0.00 0.00 0.00 85 1020.5
20260507001556 12 247 4.8 16.1 0.00 0.00 0.00 84 1020.5
20260507000029 12 240 3.2 11.3 0.00 0.00 0.00 85 1020.5
20260506234530 12 238 3.2 16.1 0.00 0.00 0.00 85 1020.5
20260506233030 12 201 8.0 14.5 0.00 0.00 0.00 83 1020.5
20260506231534 12 196 8.0 16.1 0.00 0.00 0.00 84 1020.5
20260506230027 12 214 4.8 19.3 0.00 0.00 0.00 86 1020.6
20260506224531 12 250 8.0 17.7 0.00 0.00 0.00 85 1020.7
20260506223035 12 234 4.8 16.1 0.00 0.00 0.00 85 1020.7
20260506221538 12 223 6.4 14.5 0.00 0.00 0.00 83 1020.7
20260506220023 12 206 4.8 17.7 0.00 0.00 0.00 83 1020.7
20260506214527 12 243 6.4 14.5 0.00 0.00 0.00 82 1020.7
20260506213035 13 219 8.0 16.1 0.00 0.00 0.00 81 1020.7
20260506211533 13 188 6.4 14.5 0.00 0.00 0.00 81 1020.8
20260506210039 12 233 4.8 16.1 0.00 0.00 0.00 82 1020.7
20260506204522 13 239 6.4 16.1 0.00 0.00 0.00 81 1020.7
20260506203025 12 243 4.8 22.5 0.00 0.00 0.00 81 1020.7
20260506201531 12 200 8.0 14.5 0.00 0.00 0.00 81 1020.6